Waarnemingen

Advertentie
Mijn weer
Nantes, Frankrijk (7222): temperatuur & dauwpunt: 14.10.2018 15:00:00 - 20.10.2018 15:00:00 (CEST)Nantes, Frankrijk (7222): temperatuur 5cm: 14.10.2018 15:00:00 - 20.10.2018 15:00:00 (CEST)Nantes, Frankrijk (7222): temperatuur -20cm & temperatuur -100cm: 14.10.2018 15:00:00 - 20.10.2018 15:00:00 (CEST)Nantes, Frankrijk (7222): windsnelheid & windstoten: 14.10.2018 15:00:00 - 20.10.2018 15:00:00 (CEST)Nantes, Frankrijk (7222): windrichting: 14.10.2018 15:00:00 - 20.10.2018 15:00:00 (CEST)Nantes, Frankrijk (7222): luchtdruk: 14.10.2018 15:00:00 - 20.10.2018 15:00:00 (CEST)Nantes, Frankrijk (7222): zicht: 14.10.2018 15:00:00 - 20.10.2018 15:00:00 (CEST)Nantes, Frankrijk (7222): Zonneschijnduur: 14.10.2018 15:00:00 - 20.10.2018 15:00:00 (CEST)Nantes, Frankrijk (7222): neerslag: 14.10.2018 15:00:00 - 20.10.2018 15:00:00 (CEST)
Datum & Tijd tt [°C] td [°C] tt 5cm [°C] tt -20cm [°C] tt -100cm [°C] ff [km/u] ff [kn] fx [km/u] fx [kn] dd ppp [hPa] vv [km] sd [min] rr [mm]
20.10.2018 15:00:00 - - - - - - - - - - - - - -
20.10.2018 14:00:00 16,9 10,5 22,7 15,2 16,4 20 11 35 19 ONO 1028,5 9 60 0,0
20.10.2018 13:00:00 16,0 10,3 19,9 15,2 16,4 14 8 28 15 NO 1029,1 11 60 0,0
20.10.2018 12:00:00 14,0 9,2 18,1 15,3 16,4 19 10 35 19 NO 1029,1 6 60 0,0
20.10.2018 11:00:00 13,0 8,9 14,9 15,3 16,4 20 11 35 19 NO 1028,6 11 60 0,0
20.10.2018 10:00:00 11,4 8,4 10,1 15,4 16,4 15 8 30 16 NO 1028,1 11 60 0,0
20.10.2018 09:00:00 10,0 8,1 8,0 15,5 16,4 8 5 23 12 NNO 1027,6 10 5 0,0
20.10.2018 08:00:00 10,3 8,2 8,3 15,5 16,4 10 5 25 13 NNO 1027,2 8 0 0,0
20.10.2018 07:00:00 10,4 8,7 8,7 15,6 16,4 11 6 21 11 NNO 1027,2 6 0 0,0
20.10.2018 06:00:00 11,3 9,4 9,5 15,7 16,4 10 5 26 14 NO 1026,5 7 0 0,0
20.10.2018 05:00:00 11,0 9,4 9,7 15,8 16,4 11 6 25 13 NNO 1026,0 6 0 0,0
20.10.2018 04:00:00 11,3 9,7 9,8 15,8 16,4 12 6 24 13 NNO 1026,1 6 0 0,0
20.10.2018 03:00:00 11,7 9,8 10,2 15,9 16,4 11 6 31 17 NNO 1026,1 6 0 0,0
20.10.2018 02:00:00 12,1 10,0 11,0 16,0 16,4 14 8 26 14 NNO 1026,1 6 0 0,0
20.10.2018 01:00:00 12,8 10,3 11,3 16,0 16,4 11 6 29 15 NNO 1025,8 6 0 0,0
20.10.2018 00:00:00 13,8 10,8 12,0 16,1 16,4 11 6 30 16 NO 1025,5 6 0 0,0
19.10.2018 23:00:00 14,6 11,0 13,0 16,1 16,4 14 8 28 15 NO 1025,1 7 0 0,0
19.10.2018 22:00:00 15,6 11,2 13,7 16,1 16,4 13 7 30 16 NO 1024,5 8 0 0,0
19.10.2018 21:00:00 16,1 11,7 14,2 16,1 16,4 13 7 27 14 NNO 1024,3 8 0 0,0
19.10.2018 20:00:00 16,7 12,0 14,6 16,0 16,4 10 6 25 13 NNO 1023,8 9 0 0,0
19.10.2018 19:00:00 17,6 12,3 16,1 16,0 16,4 10 6 27 15 NNO 1023,2 10 48 0,0
19.10.2018 18:00:00 19,1 12,1 21,3 15,9 16,4 12 6 28 15 NNO 1022,3 11 60 0,0
19.10.2018 17:00:00 20,2 12,4 24,5 15,7 16,4 14 7 29 16 NNO 1021,9 10 60 0,0
19.10.2018 16:00:00 20,2 12,4 24,9 15,6 16,4 16 9 29 16 ONO 1021,8 10 60 0,2
19.10.2018 15:00:00 19,9 12,6 26,2 15,5 16,4 19 10 29 15 ONO 1021,9 8 60 0,0
19.10.2018 14:00:00 18,6 12,1 24,3 15,4 16,4 16 9 30 16 ONO 1022,2 6 60 0,0
19.10.2018 13:00:00 17,2 12,1 22,0 15,4 16,4 12 7 28 15 NNO 1022,8 9 60 0,0
19.10.2018 12:00:00 15,3 11,3 19,2 15,5 16,4 13 7 23 13 NNO 1022,7 9 60 0,0
19.10.2018 11:00:00 13,5 10,7 14,9 15,5 16,4 12 6 26 14 NNO 1022,5 9 60 0,0
19.10.2018 10:00:00 12,1 10,0 10,7 15,6 16,4 15 8 30 16 NO 1022,1 8 60 0,0
19.10.2018 09:00:00 10,8 9,6 9,1 15,7 16,4 13 7 25 13 NNO 1021,4 6 7 0,0
19.10.2018 08:00:00 10,5 9,3 9,3 15,7 16,4 12 6 25 14 NNO 1021,3 6 0 0,0
19.10.2018 07:00:00 11,1 9,7 9,3 15,8 16,5 9 5 21 11 NNO 1020,8 8 0 0,0
19.10.2018 06:00:00 11,0 9,4 9,5 15,9 16,5 10 5 21 11 NNO 1020,9 10 0 0,0
19.10.2018 05:00:00 11,4 9,5 9,8 16,0 16,4 10 5 22 12 NNO 1020,9 14 0 0,0
19.10.2018 04:00:00 12,2 10,1 10,1 16,0 16,4 11 6 22 12 NNO 1021,0 19 0 0,0
19.10.2018 03:00:00 12,4 9,8 10,6 16,1 16,5 10 5 22 12 NNO 1020,9 20 0 0,0
19.10.2018 02:00:00 13,7 10,3 12,2 16,1 16,5 9 5 24 13 NNO 1020,9 20 0 0,0
19.10.2018 01:00:00 14,6 10,8 12,8 16,2 16,5 11 6 28 15 NO 1020,9 24 0 0,0
19.10.2018 00:00:00 15,2 11,0 13,3 16,2 16,5 15 8 26 14 NO 1021,0 20 0 0,0
18.10.2018 23:00:00 15,5 11,1 13,9 16,2 16,5 12 7 27 15 NNO 1020,9 34 0 0,0
18.10.2018 22:00:00 15,9 11,3 14,3 16,3 16,5 12 6 37 20 NNO 1020,5 34 0 0,0
18.10.2018 21:00:00 16,9 11,2 15,2 16,2 16,4 16 8 36 20 NNO 1020,3 31 0 0,0
18.10.2018 20:00:00 18,4 11,5 16,6 16,2 16,5 16 9 37 20 NNO 1019,5 19 0 0,0
18.10.2018 19:00:00 20,0 10,7 18,3 16,1 16,5 16 9 31 17 NNO 1018,9 20 50 0,0
18.10.2018 18:00:00 21,0 11,6 23,2 16,0 16,5 16 9 34 18 NNO 1018,4 38 60 0,0
18.10.2018 17:00:00 21,9 11,9 26,0 15,9 16,5 18 10 35 19 NO 1018,4 17 60 0,0
18.10.2018 16:00:00 21,4 12,3 27,1 15,8 16,5 17 9 31 17 NO 1018,6 10 60 0,0
18.10.2018 15:00:00 20,9 12,3 26,3 15,7 16,5 14 8 36 19 NO 1019,2 8 60 0,0
18.10.2018 14:00:00 20,1 13,1 24,7 15,6 16,5 20 11 39 21 NO 1019,7 8 60 0,0
18.10.2018 13:00:00 18,5 13,1 21,4 15,6 16,5 22 12 42 23 NO 1020,3 8 47 0,0
18.10.2018 12:00:00 16,9 12,6 17,4 15,6 16,5 22 12 39 21 NO 1020,6 4,3 17 0,0
18.10.2018 11:00:00 15,7 12,8 15,4 15,6 16,5 16 9 33 18 NO 1020,6 8 0 0,0
18.10.2018 10:00:00 14,7 12,2 13,9 15,6 16,5 14 8 32 17 NO 1020,0 9 0 0,0
18.10.2018 09:00:00 14,4 11,9 13,1 15,7 16,5 17 9 35 19 NO 1019,5 10 0 0,0
18.10.2018 08:00:00 14,2 12,1 12,6 15,7 16,5 12 6 25 14 NO 1019,1 14 0 0,0
18.10.2018 07:00:00 14,0 12,0 12,5 15,7 16,5 10 5 26 14 NNO 1018,6 16 0 0,0
18.10.2018 06:00:00 14,7 12,2 12,0 15,8 16,5 11 6 23 12 NO 1018,3 21 0 0,0
18.10.2018 05:00:00 13,9 12,3 12,7 15,8 16,5 9 5 19 10 NNO 1018,3 18 0 0,0
18.10.2018 04:00:00 14,2 12,4 12,1 15,9 16,5 9 5 21 12 NNO 1018,3 18 0 0,0
18.10.2018 03:00:00 13,3 12,0 11,6 15,9 16,5 9 5 21 12 NNO 1018,2 15 0 0,0
18.10.2018 02:00:00 13,3 11,9 11,7 15,9 16,6 10 6 23 12 NNO 1018,3 15 0 0,0
18.10.2018 01:00:00 13,3 11,9 11,7 16,0 16,6 9 5 21 12 N 1018,4 14 0 0,0
18.10.2018 00:00:00 14,0 12,4 13,0 16,0 16,5 8 5 18 10 NNO 1018,7 12 0 0,0
17.10.2018 23:00:00 14,4 12,6 13,1 16,0 16,5 9 5 22 12 N 1018,6 17 0 0,0
17.10.2018 22:00:00 14,5 12,9 13,1 16,0 16,6 9 5 19 11 NNO 1018,4 16 0 0,0
17.10.2018 21:00:00 14,4 12,9 10,9 16,0 16,6 6 3 15 8 N 1018,2 14 0 0,0
17.10.2018 20:00:00 14,0 12,4 12,1 16,0 16,6 5 3 13 7 N 1017,6 15 0 0,0
17.10.2018 19:00:00 14,6 13,1 14,0 15,9 16,6 5 3 13 7 N 1017,2 13 0 0,2
17.10.2018 18:00:00 15,2 12,1 14,2 15,8 16,6 9 5 16 9 NO 1017,1 2,8 0 0,2
17.10.2018 17:00:00 16,7 11,2 16,2 15,7 16,6 5 3 15 8 N 1017,0 34 0 0,0
17.10.2018 16:00:00 17,2 10,6 19,1 15,6 16,5 6 3 18 10 NNO 1017,2 59 0 0,0
17.10.2018 15:00:00 17,3 10,7 20,7 15,5 16,6 6 3 16 9 N 1017,5 56 4 0,0
17.10.2018 14:00:00 16,7 10,3 21,5 15,4 16,6 7 4 16 9 NNO 1018,0 59 26 0,0
17.10.2018 13:00:00 15,4 9,5 19,6 15,4 16,6 8 5 16 9 NNO 1019,1 54 15 0,0
17.10.2018 12:00:00 14,7 11,3 20,0 15,4 16,6 7 4 21 12 NO 1019,3 53 58 0,0
17.10.2018 11:00:00 11,9 11,6 12,1 15,5 16,6 5 3 10 5 ONO 1019,4 14 58 0,2
17.10.2018 10:00:00 8,7 8,4 3,7 15,7 16,6 3 1 7 4 O 1019,2 1,6 42 0,0
17.10.2018 09:00:00 5,9 5,5 2,4 15,8 16,6 2 1 8 4 W 1019,4 0,2 0 0,0
17.10.2018 08:00:00 5,7 5,3 2,5 15,9 16,6 0 0 6 4 N 1019,4 0,1 0 0,0
17.10.2018 07:00:00 6,5 6,1 3,5 16,1 16,6 2 1 6 4 ZO 1019,4 0,2 0 0,0
17.10.2018 06:00:00 6,2 5,8 3,1 16,2 16,6 4 2 8 4 Z 1019,4 0,2 0 0,0
17.10.2018 05:00:00 6,8 6,4 2,1 16,4 16,6 3 2 5 3 ZZO 1019,2 0,2 0 0,2
17.10.2018 04:00:00 6,9 6,3 2,1 16,5 16,6 0 0 4 2 N 1019,4 0,1 0 0,0
17.10.2018 03:00:00 7,6 7,0 2,3 16,6 16,6 2 1 4 2 WNW 1019,7 0,8 0 0,0
17.10.2018 02:00:00 8,1 7,3 2,9 16,8 16,6 0 0 6 3 N 1019,9 2,3 0 0,0
17.10.2018 01:00:00 8,3 7,4 3,8 16,9 16,6 4 2 5 3 ZZW 1020,1 7 0 0,0
17.10.2018 00:00:00 10,0 8,9 4,7 17,0 16,6 3 1 5 3 O 1020,3 18 0 0,0
16.10.2018 23:00:00 11,0 9,4 7,0 17,1 16,6 4 2 8 4 W 1020,2 42 0 0,0
16.10.2018 22:00:00 11,5 9,6 5,5 17,2 16,6 5 3 10 5 WNW 1019,9 46 0 0,0
16.10.2018 21:00:00 11,3 9,6 5,7 17,2 16,6 3 1 11 6 NW 1019,8 58 0 0,0
16.10.2018 20:00:00 13,3 10,7 8,4 17,2 16,5 6 3 17 9 W 1019,3 60 0 0,0
16.10.2018 19:00:00 15,6 11,2 13,8 17,1 16,5 12 6 21 11 WNW 1019,1 60 48 0,0
16.10.2018 18:00:00 18,1 11,4 17,9 17,0 16,6 13 7 21 11 W 1018,6 49 43 0,0
16.10.2018 17:00:00 17,9 10,8 18,4 16,9 16,6 11 6 24 13 ZW 1018,4 59 48 0,0
16.10.2018 16:00:00 19,3 11,3 20,8 16,7 16,5 10 5 21 11 WZW 1018,1 59 51 0,0
16.10.2018 15:00:00 19,3 11,8 20,8 16,6 16,5 10 5 21 11 WZW 1018,0 55 44 0,0
16.10.2018 14:00:00 18,1 13,0 20,1 16,6 16,5 10 5 21 11 W 1018,2 22 34 0,0
16.10.2018 13:00:00 16,6 13,5 18,6 16,5 16,6 6 3 17 9 Z 1018,3 40 3 0,0
16.10.2018 12:00:00 16,9 14,2 18,2 16,5 16,6 12 6 18 10 Z 1018,0 34 56 0,0
16.10.2018 11:00:00 15,5 14,0 15,6 16,5 16,6 8 5 13 7 ZZW 1017,4 20 34 0,0
16.10.2018 10:00:00 14,3 13,8 13,8 16,5 16,5 7 4 12 6 WZW 1016,9 12 22 0,0
16.10.2018 09:00:00 13,6 13,1 13,2 16,5 16,6 5 3 14 8 Z 1016,2 6 9 0,0
16.10.2018 08:00:00 13,8 13,3 13,7 16,6 16,6 9 5 19 10 ZW 1015,6 3,7 0 0,2
16.10.2018 07:00:00 13,9 13,4 13,8 16,6 16,5 6 3 14 7 ZZW 1015,1 1,9 0 0,0
16.10.2018 06:00:00 13,8 13,2 13,7 16,6 16,6 9 5 12 7 Z 1014,6 1,1 0 0,2
16.10.2018 05:00:00 13,9 13,3 13,6 16,7 16,6 7 4 10 5 ZZO 1014,1 2,2 0 0,0
16.10.2018 04:00:00 13,8 13,2 13,3 16,7 16,5 6 3 16 9 Z 1013,9 6 0 0,0
16.10.2018 03:00:00 13,6 13,0 12,7 16,8 16,6 9 5 14 8 Z 1013,3 6 0 0,0
16.10.2018 02:00:00 13,0 12,4 9,5 16,9 16,6 5 3 8 5 ZW 1013,2 2,8 0 0,0
16.10.2018 01:00:00 13,8 13,0 11,9 16,9 16,6 3 1 7 4 WZW 1012,6 6 0 0,0
16.10.2018 00:00:00 14,0 13,2 11,3 16,9 16,6 4 2 9 5 NW 1012,4 9 0 0,0
15.10.2018 23:00:00 13,3 12,4 11,2 17,0 16,5 6 3 12 6 NW 1012,0 10 0 0,0
15.10.2018 22:00:00 14,1 13,0 13,5 17,0 16,5 7 4 13 7 NW 1011,3 12 0 0,0
15.10.2018 21:00:00 14,0 12,9 13,4 17,0 16,5 6 4 11 6 NW 1010,8 19 0 0,0
15.10.2018 20:00:00 14,1 12,7 13,5 17,0 16,5 5 3 11 6 NNW 1010,5 26 0 0,2
15.10.2018 19:00:00 15,0 12,1 14,7 17,0 16,5 5 3 18 10 NNO 1010,1 60 0 0,0
15.10.2018 18:00:00 14,9 12,0 15,1 17,0 16,6 7 4 14 8 NO 1009,6 60 0 0,0
15.10.2018 17:00:00 14,7 12,4 15,4 16,9 16,5 10 6 21 11 ONO 1009,6 59 0 0,0
15.10.2018 16:00:00 15,7 11,9 16,9 16,9 16,5 4 2 11 6 NNO 1009,4 57 5 0,0
15.10.2018 15:00:00 15,7 12,3 16,1 16,8 16,5 4 2 14 8 ZZW 1009,5 60 0 0,0
15.10.2018 14:00:00 15,5 12,3 16,9 16,8 16,5 6 4 11 6 O 1009,3 56 0 0,0
15.10.2018 13:00:00 15,4 12,2 17,6 16,8 16,5 0 0 9 5 N 1009,4 20 7 0,0
15.10.2018 12:00:00 14,7 12,9 16,4 16,8 16,5 5 3 12 6 ZW 1009,0 60 25 0,0
15.10.2018 11:00:00 13,2 12,6 12,5 16,9 16,5 5 3 13 7 ZZO 1008,4 20 1 0,0
15.10.2018 10:00:00 12,9 12,3 12,3 17,0 16,5 6 4 12 6 ZZO 1008,3 37 18 0,0
15.10.2018 09:00:00 12,4 11,8 10,6 17,0 16,5 6 4 16 8 ZZO 1007,7 20 0 0,0
15.10.2018 08:00:00 12,3 11,7 11,0 17,1 16,5 9 5 18 10 ZZW 1007,4 60 0 0,0
15.10.2018 07:00:00 12,8 12,2 11,6 17,1 16,5 9 5 25 13 ZW 1007,0 60 0 0,0
15.10.2018 06:00:00 13,1 12,5 12,8 17,2 16,5 11 6 26 14 ZW 1006,7 15 0 0,0
15.10.2018 05:00:00 13,4 12,6 12,5 17,3 16,5 12 7 25 13 ZW 1006,3 6 0 0,0
15.10.2018 04:00:00 13,4 12,6 12,7 17,3 16,5 12 7 29 16 ZW 1006,6 4,5 0 0,2
15.10.2018 03:00:00 13,6 12,7 13,3 17,4 16,5 16 9 36 19 ZZW 1006,2 10 0 0,0
15.10.2018 02:00:00 14,0 12,4 13,8 17,4 16,5 22 12 37 20 ZZW 1005,8 19 0 0,0
15.10.2018 01:00:00 14,2 12,8 13,9 17,5 16,5 21 11 33 18 Z 1005,0 59 0 0,0
15.10.2018 00:00:00 14,4 12,9 14,3 17,5 16,5 17 9 29 16 Z 1004,7 60 0 0,0
14.10.2018 23:00:00 14,4 12,9 14,3 17,5 16,5 14 8 36 19 Z 1004,4 60 0 0,0
14.10.2018 22:00:00 15,5 13,7 15,2 17,5 16,5 19 11 36 19 ZZW 1004,4 35 0 0,0
14.10.2018 21:00:00 16,5 14,3 16,2 17,5 16,5 19 11 30 16 Z 1004,1 60 0 0,0
14.10.2018 20:00:00 17,1 14,9 16,6 17,5 16,5 12 7 26 14 Z 1003,6 19 0 0,0
14.10.2018 19:00:00 18,5 15,4 18,3 17,4 16,5 16 9 29 16 ZW 1002,8 35 0 0,0
14.10.2018 18:00:00 20,4 15,6 20,3 17,4 16,5 22 12 44 24 Z 1002,3 34 0 0,0
14.10.2018 17:00:00 21,7 16,0 23,9 17,3 16,5 21 12 32 17 Z 1002,1 37 19 0,0
14.10.2018 16:00:00 22,1 16,1 22,9 17,2 16,5 16 9 38 20 ZZW 1002,0 36 0 0,0
14.10.2018 15:00:00 22,8 15,6 23,3 17,1 16,5 19 11 43 23 Z 1002,3 36 0 0,0

tt = temperatuur
td = dauwpunt
tt 5cm = temperatuur 5cm
tt -20cm = temperatuur -20cm
tt -100cm = temperatuur -100cm
ff = windsnelheid
fx = windstoten
dd = windrichting
ppp = luchtdruk
vv = zicht
sd = Zonneschijnduur
rr = neerslag

Weerstations in de omgeving